Lid_Strength_Index
1 1 1 1 1 1 1 2 1 1 2 2 2 2 2 2 2 2 4 2 1 -3 -1 1 2 2 2 5 5 7 10 12 11 10 9 6 7 5 4 5 4 4 5 4 2
2 2 2 2 2 1 2 2 2 2 2 2 2 2 2 2 3 4 -1 -4 -4 -3 3 2 3 3 5 6 7 9 11 10 7 7 7 6 6 6 6 6 6 7 4 3 2
2 2 2 2 2 2 2 2 2 2 2 2 2 2 2 2 4 3 -2 -4 -3 -3 3 2 3 3 6 7 7 8 10 7 6 5 5 6 6 5 6 8 6 7 5 4 3
2 2 2 2 2 2 2 2 2 2 2 3 3 2 2 3 8 2 -2 -3 -3 1 4 3 3 6 7 8 7 9 6 6 6 5 6 6 5 6 5 6 4 4 4 4 4
2 2 2 2 2 2 2 2 2 2 2 2 2 2 3 5 4 -0 -2 -2 1 3 4 3 4 6 8 8 7 7 6 5 5 5 5 5 6 6 6 4 3 4 4 4 4
2 2 2 2 2 2 2 2 3 3 2 2 2 2 3 7 1 -0 1 3 4 4 3 3 4 4 6 7 7 6 6 6 5 5 5 6 6 6 5 5 6 5 5 4 4
3 3 3 3 2 2 3 3 3 3 2 2 2 2 4 4 2 2 4 4 4 4 3 3 3 5 5 6 6 5 8 7 6 6 6 5 8 7 5 5 5 5 5 4 4
3 3 3 3 3 3 3 3 3 3 2 2 2 2 6 1 1 2 4 3 3 2 2 3 3 4 5 4 5 8 8 11 7 6 6 6 10 7 5 5 6 5 5 5 4
3 3 3 3 3 3 4 4 3 3 1 2 3 5 6 1 3 2 2 2 2 2 3 2 3 5 5 8 10 9 12 11 9 6 6 7 9 6 5 5 6 6 5 5 5
3 3 3 3 3 4 4 3 3 3 2 0 1 5 3 4 3 2 2 1 3 4 5 4 6 8 8 10 13 11 11 11 11 8 7 8 9 7 6 6 7 7 7 6 5
3 3 3 4 4 4 5 5 5 5 4 6 5 5 4 2 1 2 2 2 3 5 9 6 9 10 8 8 8 8 9 10 9 7 8 9 9 7 6 6 7 7 6 6 5
4 4 4 5 5 5 6 6 6 6 9 5 5 5 3 2 4 3 2 5 5 8 7 9 11 7 6 6 7 8 10 10 8 7 8 8 9 8 7 7 6 7 7 6 5
5 5 5 5 5 5 5 5 4 5 9 7 5 5 5 5 4 4 4 5 6 7 7 10 8 6 7 7 8 9 10 10 9 8 8 8 10 10 8 6 6 6 6 6 6
5 5 5 6 6 6 5 4 4 5 12 9 7 6 5 5 7 3 3 5 6 7 7 8 6 6 7 8 8 12 7 8 8 10 13 9 14 12 10 9 7 7 6 6 5
5 5 6 7 7 7 5 4 5 6 15 6 7 4 5 6 6 5 3 5 7 7 7 8 7 8 8 8 7 10 8 9 8 11 12 10 13 13 10 10 9 7 7 5 6
5 5 6 6 6 5 3 4 6 12 15 8 6 7 8 7 6 5 4 4 4 6 7 7 5 6 7 6 6 6 8 9 9 11 15 12 12 14 12 10 9 7 6 6 6
6 6 7 5 7 5 5 6 13 14 7 9 8 7 8 8 7 7 6 7 9 11 11 8 8 6 6 8 7 8 10 15 15 15 16 12 13 13 9 8 7 7 7 6 5
7 7 6 6 6 5 5 10 14 9 10 7 7 7 8 8 7 7 8 9 7 8 10 11 12 8 7 8 10 9 11 14 18 17 15 12 15 14 9 6 6 6 6 6 7
8 7 6 5 5 6 8 13 12 9 7 8 8 9 9 8 8 8 9 9 8 7 11 12 11 6 6 7 8 10 12 9 13 13 15 14 12 9 8 7 7 7 7 6 6
8 7 7 4 4 7 10 12 10 8 7 7 10 8 10 9 10 10 9 7 7 6 6 9 12 8 6 7 7 10 8 13 13 16 18 15 15 15 11 9 8 8 7 6 6
6 7 4 3 4 9 13 12 9 7 7 8 9 9 9 9 9 9 9 7 6 6 6 8 10 10 8 9 10 10 11 11 12 13 16 18 16 10 10 9 9 8 7 7 6
6 8 4 3 9 9 12 10 9 8 7 8 7 8 9 9 10 9 9 8 6 6 8 8 10 12 10 7 7 9 10 11 13 14 14 14 15 8 8 8 8 8 7 6 5
8 6 2 3 10 10 9 9 9 9 9 8 8 8 7 9 11 8 8 5 5 6 8 8 11 14 12 10 9 10 9 9 10 12 14 16 16 8 8 8 7 6 6 6 6
7 8 5 4 5 7 9 9 9 7 9 8 8 7 8 9 8 9 9 6 6 6 4 6 11 12 13 12 10 10 9 9 10 13 13 13 13 11 10 9 8 7 6 6 6
5 7 6 9 7 7 7 8 9 9 7 8 9 8 9 11 9 9 8 8 7 5 7 8 12 12 10 9 8 8 9 8 11 10 12 11 12 10 10 9 8 7 7 6 6
6 7 6 7 6 7 8 9 8 8 7 8 9 8 7 9 8 9 8 9 9 7 9 8 12 12 12 9 9 9 8 8 8 9 10 10 12 9 7 7 8 7 7 8 6
4 4 6 7 7 8 8 7 7 6 7 6 7 8 8 7 6 6 7 6 8 9 10 10 11 13 15 10 10 12 10 9 9 8 9 12 10 8 8 8 8 7 7 7 6